Home > Weather > Leverkusen > Past weeks

Flag for Germany Past Weather in Leverkusen, North Rhine-Westphalia, Germany — Yesterday and Last 2 Weeks

Now
52 °F

Passing clouds.


Feels Like: 50 °F
Forecast: 56 / 69 °F
Wind: 6 mph from Southeast

Location: Koeln / Bonn

Current Time: Jun 27, 2016 at 4:23:46 AM

Latest Report: Jun 27, 2016 at 3:50 AM


Visibility: N/A

Pressure: 30.09 "Hg

Humidity: 94%

Dew Point: 50 °F

Location of LeverkusenLocation

Past Weather in Leverkusen — Graph

°F

Leverkusen Temperature Yesterday

Maximum temperature yesterday: 68 °F (at 12:50 PM)
Minimum temperature yesterday: 50 °F (at 2:50 AM)
Average temperature yesterday: 59 °F

High & Low Weather Summary for the Past Weeks

 TemperatureHumidityPressure
High91 °F (Jun 23, 3:20 PM)100% (Jun 13, 7:20 AM)30.27 "Hg (Jun 13, 7:20 AM)
Low45 °F (Jun 16, 2:50 AM)41% (Jun 23, 5:20 PM)29.47 "Hg (Jun 14, 5:50 PM)
Average62 °F82%29.90 "Hg
* Reported Jun 12 3:20 AM — Jun 27 3:20 AM, Leverkusen, Weather by CustomWeather, © 2016

Note: Actual official high and low records may vary slightly from our data, if they occured in-between our weather recording intervals... More about our weather records

Advertising

Leverkusen Weather History for the Previous 24 Hours

Scroll right to see more
 ConditionsComfort  
Time TempWeatherWind HumidityBarometerVisibility
3:20 AM
Mon, Jun 27
54 °FPassing clouds.5 mph94%30.09 "HgN/A
2:50 AM52 °FClear.6 mph100%30.09 "Hg10 mi
2:20 AM52 °FClear.7 mph94%30.09 "Hg10 mi
1:50 AM52 °FClear.7 mph100%30.09 "Hg10 mi
1:20 AM52 °FClear.6 mph100%30.09 "Hg10 mi
12:50 AM54 °FClear.5 mph94%30.09 "Hg10 mi
12:20 AM54 °FClear.6 mph94%30.09 "Hg10 mi
11:50 PM
Sun, Jun 26
54 °FPassing clouds.6 mph100%30.09 "HgN/A
11:20 PM54 °FPassing clouds.3 mph100%30.09 "HgN/A
10:50 PM55 °FFog.2 mph94%30.09 "HgN/A
10:20 PM55 °FFog.3 mph94%30.09 "HgN/A
9:50 PM57 °FPassing clouds.6 mph88%30.07 "HgN/A
9:20 PM59 °FPassing clouds.7 mph88%30.07 "HgN/A
8:50 PM59 °FScattered clouds.5 mph88%30.07 "HgN/A
8:20 PM61 °FScattered clouds.5 mph83%30.07 "HgN/A
7:50 PM63 °FScattered clouds.3 mph77%30.07 "HgN/A
7:20 PM61 °FScattered clouds.6 mph83%30.07 "HgN/A
6:50 PM59 °FSprinkles. Scattered clouds.7 mph82%30.07 "HgN/A
6:20 PM57 °FRain showers. Scattered clouds.5 mph94%30.07 "Hg6 mi
5:50 PM57 °FThundershowers. Broken clouds.12 mph94%30.07 "Hg5 mi
5:20 PM61 °FStrong thunderstorms. Broken clouds.20 mph77%30.07 "Hg2 mi
4:50 PM66 °FThundershowers. Scattered clouds.9 mph60%30.04 "HgN/A
4:20 PM66 °FSprinkles. Scattered clouds.8 mph64%30.04 "HgN/A
3:50 PM66 °FSprinkles. Scattered clouds.12 mph64%30.04 "HgN/A
3:20 PM66 °FSprinkles. Scattered clouds.8 mph60%30.04 "HgN/A
2:50 PM66 °FSprinkles. Scattered clouds.12 mph64%30.04 "HgN/A
2:20 PM68 °FSprinkles. Scattered clouds.7 mph56%30.04 "HgN/A
1:50 PM68 °FScattered clouds.7 mph56%30.04 "HgN/A
1:20 PM64 °FScattered clouds.8 mph64%30.07 "HgN/A
12:50 PM68 °FScattered clouds.8 mph60%30.07 "HgN/A
12:20 PM63 °FScattered clouds.8 mph68%30.07 "HgN/A
11:50 AM64 °FScattered clouds.8 mph64%30.07 "HgN/A
11:20 AM63 °FPartly sunny.12 mph68%30.07 "HgN/A
10:50 AM64 °FPartly sunny.9 mph64%30.07 "HgN/A
10:20 AM63 °FScattered clouds.9 mph68%30.07 "HgN/A
9:50 AM63 °FPassing clouds.9 mph68%30.07 "HgN/A
9:20 AM61 °FPassing clouds.7 mph72%30.07 "HgN/A
8:50 AM59 °FPassing clouds.7 mph77%30.07 "HgN/A
8:20 AM57 °FPassing clouds.6 mph82%30.07 "HgN/A
7:50 AM55 °FPassing clouds.6 mph94%30.07 "HgN/A
7:20 AM54 °FPassing clouds.6 mph100%30.07 "HgN/A
6:50 AM52 °FSunny.7 mph94%30.07 "Hg10 mi
6:20 AM52 °FPassing clouds.8 mph94%30.04 "HgN/A
5:50 AM52 °FPassing clouds.7 mph100%30.04 "HgN/A
5:20 AM50 °FFog.5 mph100%30.04 "HgN/A
4:50 AM50 °FCool.2 mph100%30.04 "HgN/A
4:20 AM54 °FFog.2 mph94%30.04 "HgN/A
Weather by CustomWeather, © 2016

See weather overviewHow to use our weather pages